Regional Weather Roundup
Issued by NWS Sioux Falls, SD

Home | Current Version | Previous Version | Graphics & Text | Print | Product List | Glossary On
Versions: 1 2 3 4 5 6 7 8 9 10 11 12 13 14 15 16 17 18 19 20 21 22 23 24 25 26 27 28 29 30 31 32 33 34 35 36 37 38 39 40 41 42 43 44 45 46 47 48 49 50
917
ASUS43 KFSD 290010
RWRFSD

WEATHER ROUNDUP FOR SE SOUTH DAKOTA/SW MINNESOTA/NW IOWA
NATIONAL WEATHER SERVICE SIOUX FALLS SD
700 PM CDT SUN AUG 28 2016

NOTE: "FAIR" INDICATES FEW OR NO CLOUDS BELOW 12,000 FEET WITH NO
SIGNIFICANT WEATHER AND OR OBSTRUCTIONS TO VISIBILITY.


SDZ038>040-050-052>070-290100-
SOUTHEAST SOUTH DAKOTA

CITY           SKY/WX    TMP DP  RH WIND       PRES   REMARKS
BROOKINGS        N/A    N/A N/A N/A MISG        N/A
CHAMBERLAIN    SUNNY     93  64  38 S13       29.93S
6HR MIN TEMP:  92; 6HR MAX TEMP:  97;

HURON          SUNNY     89  67  47 S14       29.93R
6HR MIN TEMP:  85; 6HR MAX TEMP:  92;

MADISON        FAIR      82  73  74 S14G20    30.02S
MITCHELL       SUNNY     89  67  47 S16       29.96R
6HR MIN TEMP:  86; 6HR MAX TEMP:  93;

SIOUX FALLS    MOSUNNY   87  70  56 S12       30.03R
6HR MIN TEMP:  85; 6HR MAX TEMP:  89;

WINNER         FAIR      92  63  38 S12       29.95S
YANKTON        CLOUDY    88  66  48 S13G18    30.00R
$$

MNZ071-072-080-081-089-090-097-098-290100-
SOUTHWEST MINNESOTA

CITY           SKY/WX    TMP DP  RH WIND       PRES   REMARKS
FAIRMONT       CLEAR     80  70  71 S8        30.10R
JACKSON          N/A     81  66  61 SE10      30.10S
LUVERNE        MOSUNNY   82  68  61 S9        30.05S
MARSHALL       SUNNY     84  74  71 S13       30.02S
6HR MIN TEMP:  80; 6HR MAX TEMP:  87;

MONTEVIDEO     SUNNY     84  73  70 S10G17    30.02S
REDWOOD FALLS  SUNNY     83  71  67 SE12      30.03S
TRACY          SUNNY     83  74  73 S7        30.05S
WINDOM         SUNNY     82  70  65 SE10      30.08R
WORTHINGTON    MOSUNNY   81  73  76 SE9       30.09R
$$

IAZ001>003-012>014-020>022-031-032-NEZ013-014-SDZ071-290100-
NORTHWEST IOWA

CITY           SKY/WX    TMP DP  RH WIND       PRES   REMARKS
CHEROKEE       CLOUDY    82  75  80 SE7       30.08R
DENISON        CLOUDY    70  68  94 SW8       30.11R
ESTHERVILLE    CLEAR     79  72  79 SE8       30.09S
LE MARS        CLOUDY    84  73  70 SE8       30.06R
ORANGE CITY    MOSUNNY   82  73  74 SE6       30.07R
SHELDON        MOSUNNY   82  75  78 SE10      30.06R
SIOUX CITY     MOSUNNY   84  74  71 SE10      30.04R
6HR MIN TEMP:  84; 6HR MAX TEMP:  88;

SPENCER        CLOUDY    82  71  69 SE10      30.09R
6HR MIN TEMP:  82; 6HR MAX TEMP:  87;

STORM LAKE     MOSUNNY   79  73  83 SE14      30.10S
$$

ABBREVIATIONS USED IN REMARKS
   TC - TEMPERATURE IN CELSIUS
  WCI - WIND CHILL INDEX
   HX - HEAT INDEX
  VSB - VISIBILITY





USA.gov is the U.S. government's official web portal to all federal, state and local government web resources and services.